Havre, MT

7:40 PM MDT on April 27, 2017 (GMT -0600)
Havre City-County

Weather History for KHVR - September, 2012

Change the Weather History Date:

Sunday, September 9, 2012

  Actual Average Record
Temperature  
Mean Temperature 72 °F 59 °F  
Max Temperature 93 °F 74 °F 93 °F (1981)
Min Temperature 51 °F 44 °F 26 °F (1962)
Degree Days  
Heating Degree Days 0 7  
Month to date heating degree days 41 51  
Since 1 July heating degree days 83 134  
Cooling Degree Days 7 1  
Month to date cooling degree days 8 12  
Year to date cooling degree days 503 379  
Growing Degree Days 22 (Base 50)    
Moisture  
Dew Point 31 °F    
Average Humidity 27    
Maximum Humidity 44    
Minimum Humidity 10    
Precipitation  
Precipitation T in 0.04 in 0.60 in (1921)
Month to date precipitation 0.18 0.34  
Year to date precipitation 10.32 9.01  
Snow  
Snow 0.00 in 0.00 in T in (1955)
Month to date snowfall 0.0 0.0  
Since 1 July snowfall 0.0 0.0  
Since 1 September snowfall 0.0 0.0  
Snow Depth 0.00 in    
Sea Level Pressure  
Sea Level Pressure 29.75 in    
Wind  
Wind Speed 7 mph (WSW)    
Max Wind Speed 31 mph    
Max Gust Speed 43 mph    
Visibility 10 miles    
Events      
T = Trace of Precipitation, MM = Missing Value Source: NWS Daily Summary

Daily Weather History Graph

Daily Weather History Graph

Search for Another Location

Airport or City:

Trip Planner

Search our weather history database for the weather conditions in past years. The results will help you decide how hot, cold, wet, or windy it might be!

Date:

Astronomy

Sep. 09, 2012 Rise Set
Actual Time 6:48 AM MDT 7:43 PM MDT
Civil Twilight 6:16 AM MDT 8:14 PM MDT
Nautical Twilight 5:38 AM MDT 8:52 PM MDT
Astronomical Twilight 4:57 AM MDT 9:33 PM MDT
Moon No Moon Rise 3:52 PM MDT (9/9)
Length of Visible Light 13h 58m
Length of Day
12h 54m
Last Quarter, 39% of the Moon is Illuminated
Sep 9
Last Quarter
Sep 15
New
Sep 22
First Quarter
Sep 29
Full
Oct 8
Last Quarter

Hourly Weather History & Observations

Time (MDT) Temp. Dew Point Humidity Pressure Visibility Wind Dir Wind Speed Gust Speed Precip Events Conditions
12:53 AM 72.0 °F 30.9 °F 22% 29.88 in 10.0 mi South 16.1 mph - N/A   Clear
1:53 AM 59.0 °F 35.1 °F 41% 29.90 in 10.0 mi NW 4.6 mph - N/A   Clear
2:53 AM 57.9 °F 34.0 °F 41% 29.88 in 10.0 mi West 4.6 mph - N/A   Clear
3:53 AM 55.0 °F 30.9 °F 40% 29.87 in 10.0 mi West 4.6 mph - N/A   Clear
4:53 AM 52.0 °F 30.9 °F 45% 29.87 in 10.0 mi WSW 4.6 mph - N/A   Clear
5:53 AM 53.1 °F 30.9 °F 43% 29.86 in 10.0 mi Calm Calm - N/A   Clear
6:53 AM 53.1 °F 30.9 °F 43% 29.87 in 10.0 mi Calm Calm - N/A   Clear
7:53 AM 55.0 °F 33.1 °F 43% 29.88 in 10.0 mi SW 5.8 mph - N/A   Clear
8:53 AM 62.1 °F 32.0 °F 32% 29.87 in 10.0 mi WSW 8.1 mph - N/A   Clear
9:53 AM 73.9 °F 28.9 °F 19% 29.83 in 10.0 mi WSW 15.0 mph - N/A   Clear
10:53 AM 79.0 °F 26.1 °F 14% 29.82 in 10.0 mi WSW 17.3 mph 21.9 mph N/A   Clear
11:53 AM 82.9 °F 28.0 °F 14% 29.78 in 10.0 mi SW 8.1 mph - N/A   Clear
12:53 PM 88.0 °F 28.0 °F 12% 29.75 in 10.0 mi WSW 6.9 mph - N/A   Clear
1:53 PM 89.1 °F 28.0 °F 11% 29.73 in 10.0 mi West 8.1 mph - N/A   Clear
2:53 PM 91.9 °F 28.0 °F 10% 29.71 in 10.0 mi West 11.5 mph - N/A   Clear
3:53 PM 90.0 °F 28.0 °F 11% 29.68 in 10.0 mi Calm Calm - N/A   Clear
4:53 PM 91.9 °F 28.0 °F 10% 29.65 in 10.0 mi Variable 6.9 mph - N/A   Clear
5:53 PM 91.0 °F 28.0 °F 10% 29.62 in 10.0 mi SSE 9.2 mph - N/A   Clear
6:53 PM 82.0 °F 32.0 °F 16% 29.61 in 10.0 mi SSE 5.8 mph - N/A   Clear
7:53 PM 71.1 °F 35.1 °F 27% 29.60 in 10.0 mi Variable 3.5 mph - N/A   Clear
8:53 PM 72.0 °F 32.0 °F 23% 29.60 in 10.0 mi WNW 6.9 mph - N/A   Clear
9:53 PM 72.0 °F 30.9 °F 22% 29.63 in 10.0 mi NW 9.2 mph - N/A   Partly Cloudy
10:53 PM 78.1 °F 35.1 °F 21% 29.62 in 10.0 mi NW 17.3 mph - 0.00 in   Scattered Clouds
11:53 PM 75.0 °F 37.0 °F 25% 29.62 in 10.0 mi North 10.4 mph - 0.00 in   Partly Cloudy